Retour au catalogue

KUIPER-00151

ActifCommunicationsLEO
NORAD 65771·PAYLOAD·🇺🇸 United States

Lancé Sep 25, 2025 depuis Cape Canaveral Space Force Station

Loading…

Prochains Passages (prochaines 24 heures)

TLE

FraisSource: CelesTrak SupGP

Époque: Sep 15, 2026, 02:10 UTC

1 65771C 25217K   26258.09075232  .00000578  00000+0  75711-4 0  2586
2 65771  51.9000 285.5934 0000515  67.6648  39.2706 14.79928157    18

Suivez KUIPER-00151 en temps réel avec AllMySat

Download on the App Store